Location: Unspecified
(48.2082°N, 0.0000°E)
Time: 02:59:22
(UTC+00:00)

Vanguard 1 - Pass Details

Date: 28 June 2019
Orbit: 653 x 3830 km, 34.3° (Epoch: 17 July)

Event Time Altitude Azimuth Distance (km) Brightness Sun altitude
Rises 05:31:01 0° 270° (W) 7,028 13.8 12.1°
Reaches altitude 10° 05:36:59 10° 262° (W) 5,496 13.3 13.0°
Maximum altitude 05:48:59 31° 209° (SSW) 2,860 12.2 14.9°
Drops below altitude 10° 05:56:21 10° 150° (SSE) 3,320 13.0 16.1°
Sets 05:58:59 0° 139° (SE) 3,973 13.5 16.5°
